Year,Month,Day,Hour,Minute,Value (Times are PST for temperature in C)
2007,07,16,00,00,18.20
2007,07,16,00,01,18.20
2007,07,16,00,02,18.20
2007,07,16,00,03,18.20
2007,07,16,00,04,18.20
2007,07,16,00,05,18.20
2007,07,16,00,06,18.20
2007,07,16,00,07,18.20
2007,07,16,00,08,18.20
2007,07,16,00,09,18.30
2007,07,16,00,10,18.30
2007,07,16,00,11,18.30
2007,07,16,00,12,18.30
2007,07,16,00,13,18.30
2007,07,16,00,14,18.30
2007,07,16,00,15,18.30
2007,07,16,00,16,18.30
2007,07,16,00,17,18.30
2007,07,16,00,18,18.30
2007,07,16,00,19,18.30
2007,07,16,00,20,18.20
2007,07,16,00,21,18.20
2007,07,16,00,22,18.20
2007,07,16,00,23,18.20
2007,07,16,00,24,18.20
2007,07,16,00,25,18.20
2007,07,16,00,26,18.20
2007,07,16,00,27,18.20
2007,07,16,00,28,18.20
2007,07,16,00,29,18.20
2007,07,16,00,30,18.20
2007,07,16,00,31,18.20
2007,07,16,00,32,18.20
2007,07,16,00,33,18.10
2007,07,16,00,34,18.10
2007,07,16,00,35,18.10
2007,07,16,00,36,18.10
2007,07,16,00,37,17.90
2007,07,16,00,38,17.90
2007,07,16,00,39,17.90
2007,07,16,00,40,17.90
2007,07,16,00,41,17.90
2007,07,16,00,42,17.90
2007,07,16,00,43,17.90
2007,07,16,00,44,17.90
2007,07,16,00,45,17.90
2007,07,16,00,46,17.90
2007,07,16,00,47,17.90
2007,07,16,00,48,17.90
2007,07,16,00,49,17.90
2007,07,16,00,50,17.90
2007,07,16,00,51,17.90
2007,07,16,00,52,17.90
2007,07,16,00,53,17.90
2007,07,16,00,54,17.90
2007,07,16,00,55,17.90
2007,07,16,00,56,17.90
2007,07,16,00,57,17.90
2007,07,16,00,58,17.90
2007,07,16,00,59,17.80
2007,07,16,01,00,17.70
2007,07,16,01,01,17.60
2007,07,16,01,02,17.50
2007,07,16,01,03,17.40
2007,07,16,01,04,17.30
2007,07,16,01,05,17.20
2007,07,16,01,06,17.10
2007,07,16,01,07,17.00
2007,07,16,01,08,16.90
2007,07,16,01,09,16.80
2007,07,16,01,10,16.70
2007,07,16,01,11,16.70
2007,07,16,01,12,16.70
2007,07,16,01,13,16.70
2007,07,16,01,14,16.70
2007,07,16,01,15,16.70
2007,07,16,01,16,16.70
2007,07,16,01,17,16.70
2007,07,16,01,18,16.70
2007,07,16,01,19,16.70
2007,07,16,01,20,16.70
2007,07,16,01,21,16.70
2007,07,16,01,22,16.70
2007,07,16,01,23,16.70
2007,07,16,01,24,16.80
2007,07,16,01,25,16.80
2007,07,16,01,26,16.90
2007,07,16,01,27,16.90
2007,07,16,01,28,17.00
2007,07,16,01,29,17.00
2007,07,16,01,30,17.00
2007,07,16,01,31,17.00
2007,07,16,01,32,17.00
2007,07,16,01,33,17.10
2007,07,16,01,34,17.10
2007,07,16,01,35,17.10
2007,07,16,01,36,17.00
2007,07,16,01,37,16.90
2007,07,16,01,38,16.70
2007,07,16,01,39,16.50
2007,07,16,01,40,16.30
2007,07,16,01,41,16.10
2007,07,16,01,42,16.00
2007,07,16,01,43,15.90
2007,07,16,01,44,15.80
2007,07,16,01,45,15.70
2007,07,16,01,46,15.60
2007,07,16,01,47,15.60
2007,07,16,01,48,15.50
2007,07,16,01,49,15.50
2007,07,16,01,50,15.50
2007,07,16,01,51,15.50
2007,07,16,01,52,15.40
2007,07,16,01,53,15.40
2007,07,16,01,54,15.40
2007,07,16,01,55,15.40
2007,07,16,01,56,15.40
2007,07,16,01,57,15.40
2007,07,16,01,58,15.40
2007,07,16,01,59,15.40
2007,07,16,02,00,15.40
2007,07,16,02,01,15.40
2007,07,16,02,02,15.40
2007,07,16,02,03,15.40
2007,07,16,02,04,15.40
2007,07,16,02,05,15.40
2007,07,16,02,06,15.40
2007,07,16,02,07,15.30
2007,07,16,02,08,15.30
2007,07,16,02,09,15.30
2007,07,16,02,10,15.20
2007,07,16,02,11,15.20
2007,07,16,02,12,15.10
2007,07,16,02,13,15.10
2007,07,16,02,14,15.10
2007,07,16,02,15,15.00
2007,07,16,02,16,15.00
2007,07,16,02,17,15.00
2007,07,16,02,18,15.00
2007,07,16,02,19,15.00
2007,07,16,02,20,14.90
2007,07,16,02,21,14.90
2007,07,16,02,22,14.80
2007,07,16,02,23,14.80
2007,07,16,02,24,14.80
2007,07,16,02,25,14.80
2007,07,16,02,26,14.80
2007,07,16,02,27,14.80
2007,07,16,02,28,14.80
2007,07,16,02,29,14.80
2007,07,16,02,30,14.80
2007,07,16,02,31,14.80
2007,07,16,02,32,14.80
2007,07,16,02,33,14.80
2007,07,16,02,34,14.80
2007,07,16,02,35,14.70
2007,07,16,02,36,14.70
2007,07,16,02,37,14.70
2007,07,16,02,38,14.60
2007,07,16,02,39,14.50
2007,07,16,02,40,14.50
2007,07,16,02,41,14.50
2007,07,16,02,42,14.40
2007,07,16,02,43,14.40
2007,07,16,02,44,14.40
2007,07,16,02,45,14.40
2007,07,16,02,46,14.30
2007,07,16,02,47,14.30
2007,07,16,02,48,14.30
2007,07,16,02,49,14.20
2007,07,16,02,50,14.20
2007,07,16,02,51,14.20
2007,07,16,02,52,14.20
2007,07,16,02,53,14.20
2007,07,16,02,54,14.20
2007,07,16,02,55,14.20
2007,07,16,02,56,14.20
2007,07,16,02,57,14.20
2007,07,16,02,58,14.20
2007,07,16,02,59,14.20
2007,07,16,03,00,14.20
2007,07,16,03,01,14.20
2007,07,16,03,02,14.20
2007,07,16,03,03,14.20
2007,07,16,03,04,14.20
2007,07,16,03,05,14.20
2007,07,16,03,06,14.30
2007,07,16,03,07,14.30
2007,07,16,03,08,14.30
2007,07,16,03,09,14.30
2007,07,16,03,10,14.40
2007,07,16,03,11,14.40
2007,07,16,03,12,14.40
2007,07,16,03,13,14.40
2007,07,16,03,14,14.40
2007,07,16,03,15,14.40
2007,07,16,03,16,14.40
2007,07,16,03,17,14.50
2007,07,16,03,18,14.50
2007,07,16,03,19,14.50
2007,07,16,03,20,14.50
2007,07,16,03,21,14.50
2007,07,16,03,22,14.50
2007,07,16,03,23,14.50
2007,07,16,03,24,14.50
2007,07,16,03,25,14.50
2007,07,16,03,26,14.60
2007,07,16,03,27,14.60
2007,07,16,03,28,14.60
2007,07,16,03,29,14.60
2007,07,16,03,30,14.60
2007,07,16,03,31,14.60
2007,07,16,03,32,14.60
2007,07,16,03,33,14.60
2007,07,16,03,34,14.60
2007,07,16,03,35,14.60
2007,07,16,03,36,14.70
2007,07,16,03,37,14.70
2007,07,16,03,38,14.70
2007,07,16,03,39,14.70
2007,07,16,03,40,14.70
2007,07,16,03,41,14.80
2007,07,16,03,42,14.80
2007,07,16,03,43,14.80
2007,07,16,03,44,14.80
2007,07,16,03,45,14.80
2007,07,16,03,46,14.80
2007,07,16,03,47,14.80
2007,07,16,03,48,14.80
2007,07,16,03,49,14.80
2007,07,16,03,50,14.80
2007,07,16,03,51,14.80
2007,07,16,03,52,14.80
2007,07,16,03,53,14.80
2007,07,16,03,54,14.80
2007,07,16,03,55,14.80
2007,07,16,03,56,14.80
2007,07,16,03,57,14.80
2007,07,16,03,58,14.80
2007,07,16,03,59,14.80
2007,07,16,04,00,14.80
2007,07,16,04,01,14.80
2007,07,16,04,02,14.80
2007,07,16,04,03,14.90
2007,07,16,04,04,14.90
2007,07,16,04,05,14.90
2007,07,16,04,06,14.90
2007,07,16,04,07,15.00
2007,07,16,04,08,15.00
2007,07,16,04,09,15.00
2007,07,16,04,10,15.00
2007,07,16,04,11,15.00
2007,07,16,04,12,15.00
2007,07,16,04,13,15.00
2007,07,16,04,14,15.00
2007,07,16,04,15,15.00
2007,07,16,04,16,14.90
2007,07,16,04,17,14.90
2007,07,16,04,18,14.90
2007,07,16,04,19,14.90
2007,07,16,04,20,14.90
2007,07,16,04,21,14.90
2007,07,16,04,22,14.90
2007,07,16,04,23,14.90
2007,07,16,04,24,14.90
2007,07,16,04,25,14.90
2007,07,16,04,26,14.90
2007,07,16,04,27,14.90
2007,07,16,04,28,14.90
2007,07,16,04,29,14.90
2007,07,16,04,30,15.00
2007,07,16,04,31,15.00
2007,07,16,04,32,15.00
2007,07,16,04,33,15.00
2007,07,16,04,34,15.00
2007,07,16,04,35,15.10
2007,07,16,04,36,15.10
2007,07,16,04,37,15.10
2007,07,16,04,38,15.20
2007,07,16,04,39,15.20
2007,07,16,04,40,15.20
2007,07,16,04,41,15.20
2007,07,16,04,42,15.30
2007,07,16,04,43,15.30
2007,07,16,04,44,15.30
2007,07,16,04,45,15.30
2007,07,16,04,46,15.30
2007,07,16,04,47,15.30
2007,07,16,04,48,15.30
2007,07,16,04,49,15.30
2007,07,16,04,50,15.30
2007,07,16,04,51,15.30
2007,07,16,04,52,15.30
2007,07,16,04,53,15.30
2007,07,16,04,54,15.30
2007,07,16,04,55,15.30
2007,07,16,04,56,15.30
2007,07,16,04,57,15.30
2007,07,16,04,58,15.30
2007,07,16,04,59,15.30
2007,07,16,05,00,15.30
2007,07,16,05,01,15.30
2007,07,16,05,02,15.30
2007,07,16,05,03,15.30
2007,07,16,05,04,15.30
2007,07,16,05,05,15.30
2007,07,16,05,06,15.30
2007,07,16,05,07,15.30
2007,07,16,05,08,15.30
2007,07,16,05,09,15.30
2007,07,16,05,10,15.30
2007,07,16,05,11,15.30
2007,07,16,05,12,15.30
2007,07,16,05,13,15.30
2007,07,16,05,14,15.30
2007,07,16,05,15,15.30
2007,07,16,05,16,15.30
2007,07,16,05,17,15.30
2007,07,16,05,18,15.30
2007,07,16,05,19,15.30
2007,07,16,05,20,15.30
2007,07,16,05,21,15.30
2007,07,16,05,22,15.30
2007,07,16,05,23,15.30
2007,07,16,05,24,15.30
2007,07,16,05,25,15.30
2007,07,16,05,26,15.30
2007,07,16,05,27,15.30
2007,07,16,05,28,15.30
2007,07,16,05,29,15.40
2007,07,16,05,30,15.40
2007,07,16,05,31,15.40
2007,07,16,05,32,15.40
2007,07,16,05,33,15.40
2007,07,16,05,34,15.40
2007,07,16,05,35,15.50
2007,07,16,05,36,15.50
2007,07,16,05,37,15.50
2007,07,16,05,38,15.60
2007,07,16,05,39,15.60
2007,07,16,05,40,15.60
2007,07,16,05,41,15.60
2007,07,16,05,42,15.70
2007,07,16,05,43,15.70
2007,07,16,05,44,15.70
2007,07,16,05,45,15.70
2007,07,16,05,46,15.70
2007,07,16,05,47,15.70
2007,07,16,05,48,15.70
2007,07,16,05,49,15.70
2007,07,16,05,50,15.70
2007,07,16,05,51,15.70
2007,07,16,05,52,15.70
2007,07,16,05,53,15.70
2007,07,16,05,54,15.70
2007,07,16,05,55,15.70
2007,07,16,05,56,15.70
2007,07,16,05,57,15.70
2007,07,16,05,58,15.70
2007,07,16,05,59,15.70
2007,07,16,06,00,15.70
2007,07,16,06,01,15.70
2007,07,16,06,02,15.70
2007,07,16,06,03,15.70
2007,07,16,06,04,15.70
2007,07,16,06,05,15.70
2007,07,16,06,06,15.70
2007,07,16,06,07,15.70
2007,07,16,06,08,15.70
2007,07,16,06,09,15.70
2007,07,16,06,10,15.80
2007,07,16,06,11,15.80
2007,07,16,06,12,15.80
2007,07,16,06,13,15.80
2007,07,16,06,14,15.80
2007,07,16,06,15,15.80
2007,07,16,06,16,15.80
2007,07,16,06,17,15.80
2007,07,16,06,18,15.80
2007,07,16,06,19,15.80
2007,07,16,06,20,15.80
2007,07,16,06,21,15.80
2007,07,16,06,22,15.80
2007,07,16,06,23,15.80
2007,07,16,06,24,15.80
2007,07,16,06,25,15.80
2007,07,16,06,26,15.80
2007,07,16,06,27,15.80
2007,07,16,06,28,15.80
2007,07,16,06,29,15.90
2007,07,16,06,30,15.90
2007,07,16,06,31,15.90
2007,07,16,06,32,15.90
2007,07,16,06,33,16.00
2007,07,16,06,34,16.10
2007,07,16,06,35,16.10
2007,07,16,06,36,16.10
2007,07,16,06,37,16.10
2007,07,16,06,38,16.10
2007,07,16,06,39,16.10
2007,07,16,06,40,16.10
2007,07,16,06,41,16.20
2007,07,16,06,42,16.20
2007,07,16,06,43,16.20
2007,07,16,06,44,16.20
2007,07,16,06,45,16.30
2007,07,16,06,46,16.30
2007,07,16,06,47,16.30
2007,07,16,06,48,16.40
2007,07,16,06,49,16.40
2007,07,16,06,50,16.40
2007,07,16,06,51,16.40
2007,07,16,06,52,16.40
2007,07,16,06,53,16.40
2007,07,16,06,54,16.40
2007,07,16,06,55,16.40
2007,07,16,06,56,16.40
2007,07,16,06,57,16.40
2007,07,16,06,58,16.40
2007,07,16,06,59,16.40
2007,07,16,07,00,16.40
2007,07,16,07,01,16.40
2007,07,16,07,02,16.40
2007,07,16,07,03,16.40
2007,07,16,07,04,16.40
2007,07,16,07,05,16.40
2007,07,16,07,06,16.40
2007,07,16,07,07,16.50
2007,07,16,07,08,16.60
2007,07,16,07,09,16.60
2007,07,16,07,10,16.60
2007,07,16,07,11,16.70
2007,07,16,07,12,16.70
2007,07,16,07,13,16.70
2007,07,16,07,14,16.70
2007,07,16,07,15,16.70
2007,07,16,07,16,16.70
2007,07,16,07,17,16.70
2007,07,16,07,18,16.80
2007,07,16,07,19,16.80
2007,07,16,07,20,16.80
2007,07,16,07,21,16.90
2007,07,16,07,22,16.90
2007,07,16,07,23,16.90
2007,07,16,07,24,16.90
2007,07,16,07,25,16.80
2007,07,16,07,26,16.80
2007,07,16,07,27,16.80
2007,07,16,07,28,16.70
2007,07,16,07,29,16.70
2007,07,16,07,30,16.70
2007,07,16,07,31,16.70
2007,07,16,07,32,16.70
2007,07,16,07,33,16.70
2007,07,16,07,34,16.70
2007,07,16,07,35,16.70
2007,07,16,07,36,16.70
2007,07,16,07,37,16.70
2007,07,16,07,38,16.70
2007,07,16,07,39,16.70
2007,07,16,07,40,16.70
2007,07,16,07,41,16.70
2007,07,16,07,42,16.70
2007,07,16,07,43,16.80
2007,07,16,07,44,16.80
2007,07,16,07,45,16.80
2007,07,16,07,46,16.80
2007,07,16,07,47,16.90
2007,07,16,07,48,16.90
2007,07,16,07,49,16.90
2007,07,16,07,50,16.90
2007,07,16,07,51,16.90
2007,07,16,07,52,17.00
2007,07,16,07,53,17.00
2007,07,16,07,54,17.00
2007,07,16,07,55,17.00
2007,07,16,07,56,17.00
2007,07,16,07,57,17.10
2007,07,16,07,58,17.00
2007,07,16,07,59,17.00
2007,07,16,08,00,17.00
2007,07,16,08,01,16.90
2007,07,16,08,02,16.80
2007,07,16,08,03,16.70
2007,07,16,08,04,16.70
2007,07,16,08,05,16.60
2007,07,16,08,06,16.50
2007,07,16,08,07,16.40
2007,07,16,08,08,16.40
2007,07,16,08,09,16.30
2007,07,16,08,10,16.30
2007,07,16,08,11,16.30
2007,07,16,08,12,16.30
2007,07,16,08,13,16.30
2007,07,16,08,14,16.30
2007,07,16,08,15,16.30
2007,07,16,08,16,16.30
2007,07,16,08,17,16.30
2007,07,16,08,18,16.30
2007,07,16,08,19,16.30
2007,07,16,08,20,16.30
2007,07,16,08,21,16.30
2007,07,16,08,22,16.30
2007,07,16,08,23,16.30
2007,07,16,08,24,16.30
2007,07,16,08,25,16.40
2007,07,16,08,26,16.40
2007,07,16,08,27,16.40
2007,07,16,08,28,16.50
2007,07,16,08,29,16.60
2007,07,16,08,30,16.70
2007,07,16,08,31,16.70
2007,07,16,08,32,16.80
2007,07,16,08,33,16.90
2007,07,16,08,34,17.00
2007,07,16,08,35,17.10
2007,07,16,08,36,17.20
2007,07,16,08,37,17.30
2007,07,16,08,38,17.30
2007,07,16,08,39,17.40
2007,07,16,08,40,17.50
2007,07,16,08,41,17.50
2007,07,16,08,42,17.60
2007,07,16,08,43,17.60
2007,07,16,08,44,17.60
2007,07,16,08,45,17.70
2007,07,16,08,46,17.70
2007,07,16,08,47,17.80
2007,07,16,08,48,17.90
2007,07,16,08,49,17.90
2007,07,16,08,50,18.00
2007,07,16,08,51,18.20
2007,07,16,08,52,18.20
2007,07,16,08,53,18.30
2007,07,16,08,54,18.30
2007,07,16,08,55,18.40
2007,07,16,08,56,18.40
2007,07,16,08,57,18.40
2007,07,16,08,58,18.50
2007,07,16,08,59,18.50
2007,07,16,09,00,18.60
2007,07,16,09,01,18.60
2007,07,16,09,02,18.60
2007,07,16,09,03,18.60
2007,07,16,09,04,18.60
2007,07,16,09,05,18.60
2007,07,16,09,06,18.50
2007,07,16,09,07,18.40
2007,07,16,09,08,18.30
2007,07,16,09,09,18.40
2007,07,16,09,10,18.50
2007,07,16,09,11,18.60
2007,07,16,09,12,18.70
2007,07,16,09,13,18.70
2007,07,16,09,14,18.70
2007,07,16,09,15,18.80
2007,07,16,09,16,18.70
2007,07,16,09,17,18.60
2007,07,16,09,18,18.60
2007,07,16,09,19,18.50
2007,07,16,09,20,18.50
2007,07,16,09,21,18.50
2007,07,16,09,22,18.60
2007,07,16,09,23,18.60
2007,07,16,09,24,18.60
2007,07,16,09,25,18.60
2007,07,16,09,26,18.50
2007,07,16,09,27,18.40
2007,07,16,09,28,18.40
2007,07,16,09,29,18.50
2007,07,16,09,30,18.50
2007,07,16,09,31,18.50
2007,07,16,09,32,18.60
2007,07,16,09,33,18.60
2007,07,16,09,34,18.70
2007,07,16,09,35,18.60
2007,07,16,09,36,18.60
2007,07,16,09,37,18.70
2007,07,16,09,38,18.70
2007,07,16,09,39,18.70
2007,07,16,09,40,18.70
2007,07,16,09,41,18.70
2007,07,16,09,42,18.70
2007,07,16,09,43,18.80
2007,07,16,09,44,18.90
2007,07,16,09,45,19.00
2007,07,16,09,46,19.10
2007,07,16,09,47,19.20
2007,07,16,09,48,19.20
2007,07,16,09,49,19.20
2007,07,16,09,50,19.30
2007,07,16,09,51,19.40
2007,07,16,09,52,19.40
2007,07,16,09,53,19.40
2007,07,16,09,54,19.40
2007,07,16,09,55,19.40
2007,07,16,09,56,19.40
2007,07,16,09,57,19.50
2007,07,16,09,58,19.50
2007,07,16,09,59,19.60
2007,07,16,10,00,19.70
2007,07,16,10,01,19.80
2007,07,16,10,02,19.90
2007,07,16,10,03,19.90
2007,07,16,10,04,19.90
2007,07,16,10,05,19.90
2007,07,16,10,06,19.90
2007,07,16,10,07,19.90
2007,07,16,10,08,19.90
2007,07,16,10,09,19.90
2007,07,16,10,10,20.00
2007,07,16,10,11,20.10
2007,07,16,10,12,20.10
2007,07,16,10,13,20.10
2007,07,16,10,14,20.10
2007,07,16,10,15,20.20
2007,07,16,10,16,20.20
2007,07,16,10,17,20.20
2007,07,16,10,18,20.30
2007,07,16,10,19,20.30
2007,07,16,10,20,20.40
2007,07,16,10,21,20.40
2007,07,16,10,22,20.40
2007,07,16,10,23,20.40
2007,07,16,10,24,20.40
2007,07,16,10,25,20.50
2007,07,16,10,26,20.50
2007,07,16,10,27,20.50
2007,07,16,10,28,20.50
2007,07,16,10,29,20.50
2007,07,16,10,30,20.40
2007,07,16,10,31,20.40
2007,07,16,10,32,20.40
2007,07,16,10,33,20.50
2007,07,16,10,34,20.50
2007,07,16,10,35,20.50
2007,07,16,10,36,20.60
2007,07,16,10,37,20.60
2007,07,16,10,38,20.60
2007,07,16,10,39,20.60
2007,07,16,10,40,20.70
2007,07,16,10,41,20.80
2007,07,16,10,42,21.00
2007,07,16,10,43,21.10
2007,07,16,10,44,21.10
2007,07,16,10,45,21.10
2007,07,16,10,46,21.10
2007,07,16,10,47,21.20
2007,07,16,10,48,21.20
2007,07,16,10,49,21.10
2007,07,16,10,50,21.00
2007,07,16,10,51,20.90
2007,07,16,10,52,21.00
2007,07,16,10,53,21.10
2007,07,16,10,54,21.10
2007,07,16,10,55,21.10
2007,07,16,10,56,21.10
2007,07,16,10,57,21.10
2007,07,16,10,58,21.00
2007,07,16,10,59,20.90
2007,07,16,11,00,20.70
2007,07,16,11,01,20.60
2007,07,16,11,02,20.60
2007,07,16,11,03,20.50
2007,07,16,11,04,20.50
2007,07,16,11,05,20.50
2007,07,16,11,06,20.50
2007,07,16,11,07,20.50
2007,07,16,11,08,20.30
2007,07,16,11,09,20.30
2007,07,16,11,10,20.40
2007,07,16,11,11,20.30
2007,07,16,11,12,20.20
2007,07,16,11,13,20.20
2007,07,16,11,14,20.20
2007,07,16,11,15,20.20
2007,07,16,11,16,20.20
2007,07,16,11,17,20.20
2007,07,16,11,18,20.40
2007,07,16,11,19,20.60
2007,07,16,11,20,20.80
2007,07,16,11,21,20.70
2007,07,16,11,22,20.50
2007,07,16,11,23,20.40
2007,07,16,11,24,20.40
2007,07,16,11,25,20.30
2007,07,16,11,26,20.20
2007,07,16,11,27,20.20
2007,07,16,11,28,20.20
2007,07,16,11,29,20.20
2007,07,16,11,30,20.20
2007,07,16,11,31,20.20
2007,07,16,11,32,20.20
2007,07,16,11,33,20.20
2007,07,16,11,34,20.20
2007,07,16,11,35,20.40
2007,07,16,11,36,20.50
2007,07,16,11,37,20.60
2007,07,16,11,38,20.70
2007,07,16,11,39,20.70
2007,07,16,11,40,20.60
2007,07,16,11,41,20.70
2007,07,16,11,42,20.80
2007,07,16,11,43,20.70
2007,07,16,11,44,20.60
2007,07,16,11,45,20.60
2007,07,16,11,46,20.60
2007,07,16,11,47,20.50
2007,07,16,11,48,20.50
2007,07,16,11,49,20.50
2007,07,16,11,50,20.50
2007,07,16,11,51,20.70
2007,07,16,11,52,20.80
2007,07,16,11,53,21.00
2007,07,16,11,54,20.90
2007,07,16,11,55,20.90
2007,07,16,11,56,20.80
2007,07,16,11,57,20.80
2007,07,16,11,58,20.70
2007,07,16,11,59,20.60
2007,07,16,12,00,20.50
2007,07,16,12,01,20.50
2007,07,16,12,02,20.50
2007,07,16,12,03,20.50
2007,07,16,12,04,20.50
2007,07,16,12,05,20.50
2007,07,16,12,06,20.60
2007,07,16,12,07,20.60
2007,07,16,12,08,20.70
2007,07,16,12,09,20.80
2007,07,16,12,10,20.80
2007,07,16,12,11,20.60
2007,07,16,12,12,20.60
2007,07,16,12,13,20.70
2007,07,16,12,14,20.80
2007,07,16,12,15,20.70
2007,07,16,12,16,20.60
2007,07,16,12,17,20.60
2007,07,16,12,18,20.80
2007,07,16,12,19,20.80
2007,07,16,12,20,20.70
2007,07,16,12,21,20.70
2007,07,16,12,22,20.60
2007,07,16,12,23,20.50
2007,07,16,12,24,20.40
2007,07,16,12,25,20.30
2007,07,16,12,26,20.30
2007,07,16,12,27,20.30
2007,07,16,12,28,20.30
2007,07,16,12,29,20.40
2007,07,16,12,30,20.40
2007,07,16,12,31,20.30
2007,07,16,12,32,20.20
2007,07,16,12,33,20.30
2007,07,16,12,34,20.40
2007,07,16,12,35,20.50
2007,07,16,12,36,20.70
2007,07,16,12,37,20.90
2007,07,16,12,38,21.00
2007,07,16,12,39,21.10
2007,07,16,12,40,21.10
2007,07,16,12,41,21.20
2007,07,16,12,42,21.20
2007,07,16,12,43,21.30
2007,07,16,12,44,21.30
2007,07,16,12,45,21.30
2007,07,16,12,46,21.30
2007,07,16,12,47,21.00
2007,07,16,12,48,20.80
2007,07,16,12,49,20.70
2007,07,16,12,50,20.70
2007,07,16,12,51,20.60
2007,07,16,12,52,20.60
2007,07,16,12,53,20.50
2007,07,16,12,54,20.50
2007,07,16,12,55,20.60
2007,07,16,12,56,20.70
2007,07,16,12,57,20.70
2007,07,16,12,58,20.80
2007,07,16,12,59,20.90
2007,07,16,13,00,20.90
2007,07,16,13,01,20.90
2007,07,16,13,02,21.00
2007,07,16,13,03,21.10
2007,07,16,13,04,21.20
2007,07,16,13,05,21.30
2007,07,16,13,06,21.30
2007,07,16,13,07,21.40
2007,07,16,13,08,21.40
2007,07,16,13,09,21.40
2007,07,16,13,10,21.30
2007,07,16,13,11,21.20
2007,07,16,13,12,21.10
2007,07,16,13,13,21.00
2007,07,16,13,14,21.00
2007,07,16,13,15,21.10
2007,07,16,13,16,21.20
2007,07,16,13,17,21.30
2007,07,16,13,18,21.10
2007,07,16,13,19,20.90
2007,07,16,13,20,21.10
2007,07,16,13,21,21.30
2007,07,16,13,22,21.30
2007,07,16,13,23,21.10
2007,07,16,13,24,21.00
2007,07,16,13,25,20.90
2007,07,16,13,26,20.80
2007,07,16,13,27,20.60
2007,07,16,13,28,20.50
2007,07,16,13,29,20.40
2007,07,16,13,30,20.30
2007,07,16,13,31,20.30
2007,07,16,13,32,20.40
2007,07,16,13,33,20.40
2007,07,16,13,34,20.50
2007,07,16,13,35,20.70
2007,07,16,13,36,20.80
2007,07,16,13,37,20.80
2007,07,16,13,38,20.80
2007,07,16,13,39,20.90
2007,07,16,13,40,21.00
2007,07,16,13,41,21.00
2007,07,16,13,42,20.80
2007,07,16,13,43,20.60
2007,07,16,13,44,20.40
2007,07,16,13,45,20.20
2007,07,16,13,46,20.20
2007,07,16,13,47,20.30
2007,07,16,13,48,20.20
2007,07,16,13,49,20.20
2007,07,16,13,50,20.20
2007,07,16,13,51,20.10
2007,07,16,13,52,19.90
2007,07,16,13,53,19.90
2007,07,16,13,54,19.90
2007,07,16,13,55,19.90
2007,07,16,13,56,19.90
2007,07,16,13,57,20.10
2007,07,16,13,58,20.40
2007,07,16,13,59,20.50
2007,07,16,14,00,20.70
2007,07,16,14,01,20.80
2007,07,16,14,02,20.80
2007,07,16,14,03,20.70
2007,07,16,14,04,20.60
2007,07,16,14,05,20.50
2007,07,16,14,06,20.50
2007,07,16,14,07,20.30
2007,07,16,14,08,20.30
2007,07,16,14,09,20.30
2007,07,16,14,10,20.40
2007,07,16,14,11,20.40
2007,07,16,14,12,20.50
2007,07,16,14,13,20.40
2007,07,16,14,14,20.40
2007,07,16,14,15,20.40
2007,07,16,14,16,20.40
2007,07,16,14,17,20.50
2007,07,16,14,18,20.60
2007,07,16,14,19,20.50
2007,07,16,14,20,20.50
2007,07,16,14,21,20.50
2007,07,16,14,22,20.40
2007,07,16,14,23,20.50
2007,07,16,14,24,20.50
2007,07,16,14,25,20.60
2007,07,16,14,26,20.70
2007,07,16,14,27,20.80
2007,07,16,14,28,20.70
2007,07,16,14,29,20.70
2007,07,16,14,30,20.80
2007,07,16,14,31,20.80
2007,07,16,14,32,20.80
2007,07,16,14,33,20.80
2007,07,16,14,34,20.80
2007,07,16,14,35,20.80
2007,07,16,14,36,20.70
2007,07,16,14,37,20.70
2007,07,16,14,38,20.80
2007,07,16,14,39,21.00
2007,07,16,14,40,21.10
2007,07,16,14,41,21.00
2007,07,16,14,42,20.90
2007,07,16,14,43,20.90
2007,07,16,14,44,20.90
2007,07,16,14,45,20.80
2007,07,16,14,46,20.80
2007,07,16,14,47,20.70
2007,07,16,14,48,20.70
2007,07,16,14,49,20.70
2007,07,16,14,50,20.80
2007,07,16,14,51,20.90
2007,07,16,14,52,21.00
2007,07,16,14,53,21.20
2007,07,16,14,54,21.10
2007,07,16,14,55,21.10
2007,07,16,14,56,21.10
2007,07,16,14,57,21.20
2007,07,16,14,58,21.20
2007,07,16,14,59,21.10
2007,07,16,15,00,21.10
2007,07,16,15,01,21.10
2007,07,16,15,02,21.10
2007,07,16,15,03,21.10
2007,07,16,15,04,21.20
2007,07,16,15,05,21.20
2007,07,16,15,06,21.10
2007,07,16,15,07,21.10
2007,07,16,15,08,21.10
2007,07,16,15,09,21.30
2007,07,16,15,10,21.30
2007,07,16,15,11,21.50
2007,07,16,15,12,21.60
2007,07,16,15,13,21.60
2007,07,16,15,14,21.70
2007,07,16,15,15,21.70
2007,07,16,15,16,21.70
2007,07,16,15,17,21.60
2007,07,16,15,18,21.60
2007,07,16,15,19,21.50
2007,07,16,15,20,21.40
2007,07,16,15,21,21.50
2007,07,16,15,22,21.60
2007,07,16,15,23,21.60
2007,07,16,15,24,21.70
2007,07,16,15,25,21.80
2007,07,16,15,26,22.00
2007,07,16,15,27,22.10
2007,07,16,15,28,22.10
2007,07,16,15,29,22.00
2007,07,16,15,30,22.00
2007,07,16,15,31,22.00
2007,07,16,15,32,22.10
2007,07,16,15,33,22.10
2007,07,16,15,34,22.20
2007,07,16,15,35,22.20
2007,07,16,15,36,22.20
2007,07,16,15,37,22.30
2007,07,16,15,38,22.40
2007,07,16,15,39,22.50
2007,07,16,15,40,22.50
2007,07,16,15,41,22.50
2007,07,16,15,42,22.50
2007,07,16,15,43,22.60
2007,07,16,15,44,22.60
2007,07,16,15,45,22.50
2007,07,16,15,46,22.30
2007,07,16,15,47,22.00
2007,07,16,15,48,22.00
2007,07,16,15,49,22.00
2007,07,16,15,50,22.00
2007,07,16,15,51,22.10
2007,07,16,15,52,22.10
2007,07,16,15,53,22.10
2007,07,16,15,54,22.10
2007,07,16,15,55,22.10
2007,07,16,15,56,22.00
2007,07,16,15,57,22.00
2007,07,16,15,58,22.10
2007,07,16,15,59,21.90
2007,07,16,16,00,21.90
2007,07,16,16,01,22.00
2007,07,16,16,02,22.20
2007,07,16,16,03,22.20
2007,07,16,16,04,22.20
2007,07,16,16,05,22.10
2007,07,16,16,06,22.00
2007,07,16,16,07,21.90
2007,07,16,16,08,21.70
2007,07,16,16,09,21.60
2007,07,16,16,10,21.60
2007,07,16,16,11,21.70
2007,07,16,16,12,21.80
2007,07,16,16,13,21.90
2007,07,16,16,14,21.90
2007,07,16,16,15,22.00
2007,07,16,16,16,22.00
2007,07,16,16,17,22.10
2007,07,16,16,18,22.20
2007,07,16,16,19,22.20
2007,07,16,16,20,22.20
2007,07,16,16,21,22.20
2007,07,16,16,22,22.20
2007,07,16,16,23,22.30
2007,07,16,16,24,22.40
2007,07,16,16,25,22.30
2007,07,16,16,26,22.20
2007,07,16,16,27,22.30
2007,07,16,16,28,22.30
2007,07,16,16,29,22.30
2007,07,16,16,30,22.20
2007,07,16,16,31,22.20
2007,07,16,16,32,22.30
2007,07,16,16,33,22.50
2007,07,16,16,34,22.50
2007,07,16,16,35,22.50
2007,07,16,16,36,22.40
2007,07,16,16,37,22.30
2007,07,16,16,38,22.30
2007,07,16,16,39,22.20
2007,07,16,16,40,22.10
2007,07,16,16,41,22.10
2007,07,16,16,42,22.00
2007,07,16,16,43,22.00
2007,07,16,16,44,21.90
2007,07,16,16,45,21.90
2007,07,16,16,46,21.90
2007,07,16,16,47,22.00
2007,07,16,16,48,22.00
2007,07,16,16,49,22.10
2007,07,16,16,50,22.10
2007,07,16,16,51,22.10
2007,07,16,16,52,22.10
2007,07,16,16,53,22.10
2007,07,16,16,54,22.00
2007,07,16,16,55,22.00
2007,07,16,16,56,22.00
2007,07,16,16,57,22.10
2007,07,16,16,58,22.30
2007,07,16,16,59,22.20
2007,07,16,17,00,22.00
2007,07,16,17,01,21.90
2007,07,16,17,02,21.90
2007,07,16,17,03,21.90
2007,07,16,17,04,22.00
2007,07,16,17,05,22.00
2007,07,16,17,06,21.90
2007,07,16,17,07,21.90
2007,07,16,17,08,21.90
2007,07,16,17,09,21.80
2007,07,16,17,10,21.80
2007,07,16,17,11,21.90
2007,07,16,17,12,22.10
2007,07,16,17,13,22.00
2007,07,16,17,14,21.90
2007,07,16,17,15,22.00
2007,07,16,17,16,21.80
2007,07,16,17,17,21.70
2007,07,16,17,18,21.60
2007,07,16,17,19,21.60